Flag for Cote d'Ivoire (Ivory Coast) Weather past 2 weeks in Abidjan, Cote d'Ivoire (Ivory Coast)

Now
82 °F

Broken clouds.


Feels Like: 89 °F
Forecast: N/A
Wind: 7 mph from Southwest

Location: Abidjan Airport

Current Time: May 28, 2015 at 5:17:31 PM

Latest Report: May 28, 2015 at 4:30 PM


Visibility: N/A

Pressure: 29.83 "Hg

Humidity: 79%

Dew point: 75 °F

Location of AbidjanLocation

Historic Weather in Abidjan — Graph

°F

Abidjan temperature yesterday

Maximum temperature yesterday: 86 °F (at 12:30 PM)
Minimum temperature yesterday: 77 °F (at 1:30 AM)
Average temperature yesterday: 81 °F

Past Weeks' High & Low Weather Summary

 TemperatureHumidityPressure
High90 °F (May 14, 11:30 AM)100% (May 16, 3:30 AM)29.98 "Hg (May 16, 3:30 AM)
Low73 °F (May 20, 9:30 PM)59% (May 24, 12:30 PM)29.77 "Hg (May 13, 4:00 PM)
Average82 °F86%29.88 "Hg
* Reported May 13 4:00 PM — May 28 4:00 PM, Abidjan, Weather by CustomWeather, © 2015

Note: Actual official high and low records may vary slightly from our data, if they occured in-between our weather recording intervals... More about our weather records

Advertising

Abidjan weather history for previous 24 hours

 ConditionsComfort  
Time TempWeatherWind HumidityBarometerVisibility
4:00 PM
Thu, May 28
82 °FBroken clouds.7 mph79%29.80 "HgN/A
3:30 PM81 °FBroken clouds.7 mph89%29.83 "HgN/A
3:00 PM81 °FBroken clouds.10 mph89%29.83 "HgN/A
2:30 PM81 °FBroken clouds.14 mph89%29.86 "HgN/A
2:00 PM81 °FPartly sunny.14 mph89%29.86 "HgN/A
1:30 PM82 °FPartly sunny.14 mph89%29.86 "HgN/A
1:00 PM82 °FPartly sunny.12 mph89%29.89 "HgN/A
12:30 PM84 °FLight rain. Partly sunny.9 mph79%29.89 "HgN/A
12:00 PM84 °FPartly sunny.5 mph79%29.89 "HgN/A
11:30 AM84 °FScattered clouds.5 mph79%29.89 "HgN/A
11:00 AM84 °FBroken clouds.3 mph79%29.89 "HgN/A
10:30 AM84 °FBroken clouds.3 mph79%29.92 "HgN/A
10:00 AM81 °FBroken clouds.3 mph94%29.92 "Hg5 mi
9:30 AM81 °FScattered clouds.2 mph94%29.92 "Hg5 mi
9:00 AM81 °FScattered clouds.5 mph94%29.92 "Hg5 mi
8:30 AM81 °FPartly sunny.5 mph89%29.89 "Hg5 mi
8:00 AM79 °FPartly sunny.No wind94%29.89 "Hg5 mi
7:30 AM79 °FPartly sunny.3 mph94%29.89 "Hg5 mi
7:00 AM79 °FPartly sunny.3 mph94%29.86 "Hg5 mi
6:30 AM79 °FPartly sunny.No wind94%29.86 "Hg5 mi
6:00 AM79 °FPassing clouds.No wind94%29.86 "Hg5 mi
5:30 AM79 °FRain. Passing clouds.5 mph94%29.86 "Hg1 mi
5:00 AM81 °FPassing clouds.3 mph89%29.86 "HgN/A
4:30 AM81 °FPassing clouds.8 mph89%29.86 "HgN/A
4:00 AM81 °FPassing clouds.9 mph89%29.86 "HgN/A
3:30 AM81 °FPassing clouds.8 mph89%29.83 "HgN/A
3:00 AM81 °FThunderstorms. Passing clouds.7 mph89%29.86 "HgN/A
2:30 AM81 °FThunderstorms. Passing clouds.8 mph89%29.89 "HgN/A
2:00 AM81 °FThunderstorms. Passing clouds.8 mph89%29.89 "HgN/A
1:30 AM81 °FPassing clouds.7 mph89%29.89 "HgN/A
1:00 AM81 °FPassing clouds.8 mph89%29.89 "HgN/A
12:30 AM82 °FPassing clouds.7 mph84%29.89 "HgN/A
11:00 PM
Wed, May 27
82 °FPassing clouds.8 mph94%29.89 "HgN/A
10:30 PM81 °FPassing clouds.7 mph94%29.92 "HgN/A
10:00 PM81 °FThunderstorms. Passing clouds.8 mph94%29.92 "HgN/A
9:30 PM81 °FThunderstorms. Passing clouds.8 mph94%29.89 "HgN/A
9:00 PM81 °FThunderstorms. Passing clouds.7 mph84%29.86 "HgN/A
8:30 PM81 °FThunderstorms. Passing clouds.7 mph84%29.86 "HgN/A
8:00 PM81 °FThunderstorms. Passing clouds.8 mph84%29.86 "HgN/A
7:30 PM82 °FThunderstorms. Passing clouds.8 mph84%29.86 "HgN/A
7:00 PM82 °FThunderstorms. Passing clouds.9 mph84%29.86 "HgN/A
6:30 PM82 °FPassing clouds.9 mph89%29.86 "HgN/A
6:00 PM82 °FScattered clouds.12 mph89%29.83 "HgN/A
5:30 PM82 °FScattered clouds.12 mph89%29.83 "HgN/A
5:00 PM82 °FPartly sunny.12 mph89%29.83 "HgN/A
Weather by CustomWeather, © 2015

See weather overviewHow to use our weather pages